Location: Norderney
(53.7000°N, 7.1500°E)
Time: 02:03:31
(UTC+02:00)

ACS3 Solar Sail - Pass Details

Date: 18 August 2024
Orbit: 979 x 1031 km, 97.4° (Epoch: 10 September)

Event Time Altitude Azimuth Distance (km) Brightness Sun altitude
Exits shadow 22:51:07 - 191° (S) 3,481 4.3 -15.0°
Reaches altitude 10° 22:53:02 10° 197° (SSW) 2,803 3.9 -15.2°
Maximum altitude 22:58:59 41° 267° (W) 1,448 3.0 -15.7°
Drops below altitude 10° 23:05:04 10° 337° (NNW) 2,856 5.5 -16.3°
Sets 23:07:47 0° 344° (NNW) 3,819 6.2 -16.6°
